Houston, TX

10:34 AM CDT on October 21, 2019 (GMT -0500)
Houston

Weather History for KTME - September, 2019

Change the Weather History Date:

Friday, September 20, 2019

  Actual Average (WUND) Record (WUND)
Temperature  
Mean Temperature 83 °F -  
Max Temperature 91 °F - - (-1)
Min Temperature 75 °F - - (-1)
Cooling Degree Days 18    
Growing Degree Days 33 (Base 50)    
Moisture  
Dew Point 77 °F    
Average Humidity 89    
Maximum Humidity 100    
Minimum Humidity 58    
Precipitation  
Precipitation 0.00 in - - ()
Sea Level Pressure  
Sea Level Pressure 29.99 in    
Wind  
Wind Speed 7 mph (SSE)    
Max Wind Speed 22 mph    
Max Gust Speed 34 mph    
Visibility 9 miles    
Events Rain    
Averages and records for this station are not official NWS values.
T = Trace of Precipitation, MM = Missing Value Source: NWS Daily Summary

Daily Weather History Graph

Daily Weather History Graph

Search for Another Location

Airport or City:

Astronomy

Sep. 20, 2019 Rise Set
Actual Time 7:10 AM CDT 7:22 PM CDT
Civil Twilight 6:46 AM CDT 7:46 PM CDT
Nautical Twilight 6:19 AM CDT 8:14 PM CDT
Astronomical Twilight 5:50 AM CDT 8:42 PM CDT
Moon 11:39 PM CDT (9/20) 12:51 PM CDT (9/20)
Length of Visible Light 12h 59m
Length of Day
12h 12m
Waning Gibbous, 65% of the Moon is Illuminated
Sep 20
Waning Gibbous
Sep 21
Last Quarter
Sep 28
New
Oct 5
First Quarter
Oct 13
Full

Hourly Weather History & Observations

Time (CDT) Temp. Heat Index Dew Point Humidity Pressure Visibility Wind Dir Wind Speed Gust Speed Precip Events Conditions
12:15 AM 78.8 °F - 77.0 °F 94% 29.93 in 10.0 mi SSE 5.8 mph - N/A   Clear
12:35 AM 78.8 °F - 78.8 °F 100% 29.93 in 10.0 mi SSE 6.9 mph - N/A   Clear
12:55 AM 78.8 °F - 78.8 °F 100% 29.94 in 10.0 mi South 9.2 mph - N/A   Clear
1:15 AM 78.8 °F - 78.8 °F 100% 29.94 in 10.0 mi South 8.1 mph - N/A   Scattered Clouds
1:35 AM 78.8 °F - 78.8 °F 100% 29.94 in 10.0 mi SSE 8.1 mph - N/A   Overcast
1:55 AM 78.8 °F - 77.0 °F 94% 29.94 in 10.0 mi SSE 5.8 mph - N/A   Mostly Cloudy
2:15 AM 78.8 °F - 77.0 °F 94% 29.94 in 10.0 mi SSE 5.8 mph - N/A   Scattered Clouds
2:35 AM 78.8 °F - 77.0 °F 94% 29.94 in 10.0 mi SSE 4.6 mph - N/A   Clear
2:55 AM 77.0 °F - 77.0 °F 100% 29.95 in 10.0 mi SE 4.6 mph - N/A   Clear
3:15 AM 77.0 °F - 77.0 °F 100% 29.94 in 10.0 mi SE 5.8 mph - N/A   Clear
3:35 AM 77.0 °F - 77.0 °F 100% 29.93 in 10.0 mi SE 4.6 mph - N/A   Clear
3:55 AM 77.0 °F - 77.0 °F 100% 29.93 in 9.0 mi SE 5.8 mph - N/A   Clear
4:15 AM 77.0 °F - 77.0 °F 100% 29.93 in 10.0 mi SE 5.8 mph - N/A   Clear
4:35 AM 78.8 °F - 77.0 °F 94% 29.94 in 10.0 mi SSE 4.6 mph - N/A   Clear
4:55 AM 78.8 °F - 77.0 °F 94% 29.95 in 10.0 mi SE 3.5 mph - N/A   Clear
5:15 AM 78.8 °F - 77.0 °F 94% 29.94 in 10.0 mi SE 6.9 mph - N/A   Clear
5:35 AM 78.8 °F - 77.0 °F 94% 29.95 in 9.0 mi SE 6.9 mph - N/A   Partly Cloudy
5:55 AM 78.8 °F - 78.8 °F 100% 29.96 in 10.0 mi SE 5.8 mph - N/A   Clear
6:15 AM 78.8 °F - 78.8 °F 100% 29.97 in 8.0 mi ESE 4.6 mph - N/A   Partly Cloudy
6:35 AM 78.8 °F - 78.8 °F 100% 29.97 in 7.0 mi SE 6.9 mph - N/A   Mostly Cloudy
6:55 AM 78.8 °F - 78.8 °F 100% 29.97 in 6.0 mi SE 4.6 mph - N/A   Mostly Cloudy
7:15 AM 78.8 °F - 77.0 °F 94% 29.97 in 5.0 mi Calm Calm - N/A   Clear
7:35 AM 78.8 °F - 78.8 °F 100% 29.98 in 3.0 mi Calm Calm - N/A   Clear
7:55 AM 78.8 °F - 78.8 °F 100% 29.98 in 3.0 mi Calm Calm - N/A   Clear
8:15 AM 78.8 °F - 78.8 °F 100% 29.98 in 4.0 mi SE 6.9 mph - N/A   Clear
8:35 AM 80.6 °F 88.1 °F 78.8 °F 94% 29.99 in 9.0 mi SSE 8.1 mph - N/A   Clear
8:55 AM 82.4 °F 92.4 °F 78.8 °F 89% 30.00 in 9.0 mi SSE 8.1 mph - N/A   Mostly Cloudy
9:15 AM 82.4 °F 94.0 °F 80.6 °F 94% 30.00 in 10.0 mi SSE 5.8 mph - N/A   Mostly Cloudy
9:35 AM 84.2 °F 96.1 °F 78.8 °F 84% 30.00 in 9.0 mi South 12.7 mph - N/A   Mostly Cloudy
9:55 AM 84.2 °F 96.1 °F 78.8 °F 84% 30.01 in 9.0 mi SSE 10.4 mph - N/A   Scattered Clouds
10:15 AM 86.0 °F 93.4 °F 73.4 °F 66% 30.02 in 10.0 mi SSE 9.2 mph - N/A   Partly Cloudy
10:35 AM 87.8 °F 95.6 °F 73.4 °F 62% 30.02 in 10.0 mi SSE 10.4 mph - N/A   Clear
10:55 AM 87.8 °F 95.6 °F 73.4 °F 62% 30.02 in 10.0 mi South 9.2 mph 18.4 mph N/A   Clear
11:15 AM 87.8 °F 97.6 °F 75.2 °F 66% 30.02 in 10.0 mi South 15.0 mph - N/A   Scattered Clouds
11:35 AM 89.6 °F 102.2 °F 77.0 °F 66% 30.02 in 10.0 mi South 12.7 mph - N/A   Scattered Clouds
11:55 AM 89.6 °F 102.2 °F 77.0 °F 66% 30.01 in 10.0 mi South 12.7 mph 19.6 mph N/A   Scattered Clouds
12:15 PM 89.6 °F 102.2 °F 77.0 °F 66% 30.01 in 10.0 mi South 13.8 mph - N/A   Scattered Clouds
12:35 PM 84.2 °F 90.9 °F 73.4 °F 70% 30.01 in 10.0 mi South 17.3 mph 25.3 mph N/A   Mostly Cloudy
12:55 PM 84.2 °F 96.1 °F 78.8 °F 84% 30.00 in 8.0 mi South 5.8 mph - N/A   Partly Cloudy
1:15 PM 89.6 °F 102.2 °F 77.0 °F 66% 30.00 in 10.0 mi South 8.1 mph - N/A   Partly Cloudy
1:35 PM 91.4 °F 105.1 °F 77.0 °F 63% 29.99 in 10.0 mi SSW 11.5 mph - N/A   Partly Cloudy
1:55 PM 87.8 °F 93.8 °F 71.6 °F 58% 30.00 in 10.0 mi South 12.7 mph 24.2 mph N/A   Mostly Cloudy
2:15 PM 89.6 °F 99.8 °F 75.2 °F 62% 29.98 in 10.0 mi SSW 13.8 mph 19.6 mph N/A   Scattered Clouds
2:35 PM 82.4 °F 88.2 °F 73.4 °F 74% 29.99 in 10.0 mi WSW 18.4 mph 24.2 mph N/A   Mostly Cloudy
2:55 PM 75.2 °F - 75.2 °F 100% 29.99 in 0.5 mi WSW 15.0 mph 23.0 mph N/A Rain Heavy Rain
3:15 PM 75.2 °F - 73.4 °F 94% 30.00 in 0.2 mi WSW 21.9 mph 34.5 mph N/A Rain Heavy Rain
3:35 PM 75.2 °F - 75.2 °F 100% 30.02 in 0.5 mi SSE 9.2 mph 15.0 mph N/A Rain Heavy Rain
3:55 PM 77.0 °F - 77.0 °F 100% 30.00 in 3.0 mi SE 3.5 mph - N/A Rain Light Rain
4:15 PM 77.0 °F - 77.0 °F 100% 29.99 in 4.0 mi South 4.6 mph - N/A   Light Drizzle
4:35 PM 77.0 °F - 77.0 °F 100% 29.99 in 10.0 mi Calm Calm - N/A   Clear
4:55 PM 78.8 °F - 77.0 °F 94% 29.99 in 10.0 mi Calm Calm - N/A   Clear
5:15 PM 78.8 °F - 77.0 °F 94% 29.99 in 9.0 mi East 6.9 mph - N/A   Light Drizzle
5:35 PM 80.6 °F 88.1 °F 78.8 °F 94% 29.98 in 9.0 mi SE 8.1 mph - N/A   Light Drizzle
5:55 PM 82.4 °F 92.4 °F 78.8 °F 89% 29.98 in 10.0 mi ESE 13.8 mph - N/A   Clear
6:15 PM 82.4 °F 92.4 °F 78.8 °F 89% 29.99 in 9.0 mi ESE 9.2 mph - N/A   Partly Cloudy
6:35 PM 82.4 °F 92.4 °F 78.8 °F 89% 29.99 in 10.0 mi SE 9.2 mph - N/A   Partly Cloudy
6:55 PM 82.4 °F 92.4 °F 78.8 °F 89% 30.00 in 10.0 mi SSE 8.1 mph - N/A   Clear
7:15 PM 82.4 °F 90.9 °F 77.0 °F 84% 30.00 in 10.0 mi SE 13.8 mph - N/A   Clear
7:35 PM 80.6 °F 87.1 °F 77.0 °F 89% 30.00 in 10.0 mi SE 11.5 mph - N/A   Partly Cloudy
7:55 PM 80.6 °F 86.2 °F 75.2 °F 84% 30.00 in 10.0 mi SE 11.5 mph - N/A   Clear
8:15 PM 80.6 °F 86.2 °F 75.2 °F 84% 30.01 in 10.0 mi SE 9.2 mph 15.0 mph N/A   Clear
8:35 PM 78.8 °F - 75.2 °F 89% 30.01 in 10.0 mi ESE 9.2 mph - N/A   Clear
8:55 PM 78.8 °F - 75.2 °F 89% 30.02 in 10.0 mi ESE 6.9 mph - N/A   Clear
9:15 PM 78.8 °F - 75.2 °F 89% 30.02 in 10.0 mi ESE 5.8 mph - N/A   Clear
9:35 PM 78.8 °F - 75.2 °F 89% 30.03 in 10.0 mi ESE 8.1 mph - N/A   Scattered Clouds
9:55 PM 78.8 °F - 75.2 °F 89% 30.04 in 10.0 mi SE 6.9 mph - N/A   Overcast
10:15 PM 78.8 °F - 75.2 °F 89% 30.04 in 10.0 mi SE 5.8 mph - N/A   Scattered Clouds
10:35 PM 78.8 °F - 77.0 °F 94% 30.04 in 10.0 mi SE 5.8 mph - N/A   Scattered Clouds
10:55 PM 78.8 °F - 77.0 °F 94% 30.05 in 10.0 mi ESE 3.5 mph - N/A   Scattered Clouds
11:15 PM 77.0 °F - 77.0 °F 100% 30.05 in 9.0 mi Calm Calm - N/A   Clear
11:35 PM 77.0 °F - 77.0 °F 100% 30.06 in 9.0 mi Calm Calm - N/A   Scattered Clouds
11:55 PM 77.0 °F - 77.0 °F 100% 30.07 in 8.0 mi Calm Calm - N/A   Partly Cloudy